sat.trackr.live / text

‹ back to catalog

ONEWEB-0245

NORAD 48778 · 2021-045M

PAYLOAD ACTIVE UNKNOWN

§ Identity

Operator
Country
UK
Launch date
2021-05-28
Launch site
VOSTO
Launch vehicle
Mass (kg)
RCS (m²)

Purposes: comms

External: N2YO · Heavens-Above · Gunter

§ Orbital elements

Epoch: 2026-05-25T00:30:26.012160Z

Period
109.46 min
Inclination
87.8999°
Eccentricity
0.0001703
Mean motion
13.15547907 rev/d
Perigee alt
1,200.5 km
Apogee alt
1,203.1 km
Semi-major
7,579.9 km
B*
3.4451e-4
RAAN
263.8067°
Arg perigee
104.4216°
Mean anomaly
255.7103°
Rev number
24,133

§ Raw data

ONEWEB-02451 48778U 21045M   26145.02113440  .00000143  00000+0  34451-3 0  99962 48778  87.8999 263.8067 0001703 104.4216 255.7103 13.15547907241335

JSON: /api/v1/satellites/48778 · /tle

For live sub-satellite position, see the globe view (requires WebGL).

§ Visibility from observer

Set your observer location to see the next 7 days of passes ≥ 10°. The values pass through the URL so the page stays shareable.

No JS? Fill the form by hand. The geolocation button needs JavaScript.